Location: ActonStarParty
(42.4766°N, 71.4538°W)
Time: 23:39:12
(UTC-04:00)

Cosmos 2333 - Pass Details

Date: 19 April 2018
Orbit: 829 x 867 km, 70.9° (Epoch: 20 September)

Event Time Altitude Azimuth Distance (km) Brightness Sun altitude
Rises 20:26:15 0° 201° (SSW) 3,396 7.3 -10.1°
Reaches altitude 10° 20:28:41 10° 201° (SSW) 2,459 6.6 -10.5°
Maximum altitude 20:34:20 85° 114° (ESE) 847 4.2 -11.4°
Drops below altitude 10° 20:39:58 10° 26° (NNE) 2,452 6.7 -12.4°
Sets 20:42:25 0° 26° (NNE) 3,386 7.4 -12.8°
